Regional Weather Roundup
Issued by NWS

Home | Current Version | Previous Version | Text Only | Print | Product List | Glossary On
Versions: 1 2 3 4 5 6 7 8 9 10 11 12 13 14 15 16 17 18 19 20 21 22 23 24 25 26 27 28 29 30 31 32 33 34 35 36 37 38 39 40 41 42 43 44 45 46 47 48 49 50
000
ASUS43 KMKX 250121
RWRWI

WISCONSIN REGIONAL WEATHER ROUNDUP
NATIONAL WEATHER SERVICE MILWAUKEE/SULLIVAN WI
800 PM CDT SUN SEP 24 2017

NOTE: "FAIR" INDICATES FEW OR NO CLOUDS BELOW 12,000 FEET WITH NO
SIGNIFICANT WEATHER AND/OR OBSTRUCTIONS TO VISIBILITY.

WIZ001-002-006>008-014>016-023>028-250200-
NORTHWEST WISCONSIN

CITY           SKY/WX    TMP DP  RH WIND       PRES   REMARKS
SUPERIOR ARPT  PTCLDY    63  63 100 CALM      29.83F FOG
ASHLAND        CLEAR     75  63  66 S6        29.87S
HAYWARD        CLEAR     76  63  64 S9        29.89S
SIREN          CLEAR     76  64  64 SE8       29.86S
CUMBERLAND     CLEAR     73  61  64 S7        29.90R
RICE LAKE      CLEAR     76  63  63 SE7       29.91S
CHETEK         CLEAR     75  65  70 SE6       29.91R
LADYSMITH      CLEAR     77  60  56 SE5       29.94R
EAU CLAIRE     CLEAR     80  61  52 S12       29.90R HX  81
MENOMONIE      CLEAR     77  63  61 SE7       29.90R
NEW RICHMOND   PTCLDY    77  62  59 SE7       29.88R
OSCEOLA        PTCLDY    79  63  58 S6        29.89R HX  80
$$

WIZ003>005-009-010-017-018-250200-
NORTH CENTRAL WISCONSIN

CITY           SKY/WX    TMP DP  RH WIND       PRES   REMARKS
MANITOWISH WTR NOT AVBL
ARBOR VITAE    CLEAR     74  61  63 SE5       29.96S
WOODRUFF       CLEAR     74  61  63 SE5       29.96S
RHINELANDER    CLEAR     73  62  68 SE5       29.99S
EAGLE RIVER    CLEAR     73  60  65 S5        29.98S
LAND O LAKES   CLEAR     72  61  69 CALM      30.00S
PHILLIPS       CLEAR     73  61  66 S6        29.95R
TOMAHAWK       CLEAR     67  59  75 CALM      29.98R
MEDFORD        CLEAR     70  60  70 S5        29.96F
MERRILL        CLEAR     74  59  61 SE3       29.98S
$$

WIZ029-030-035-036-043>047-250200-
CENTRAL WISCONSIN

CITY           SKY/WX    TMP DP  RH WIND       PRES   REMARKS
WAUSAU         CLEAR     76  61  59 S6        29.96R
MOSINEE        CLEAR     73  61  64 SE3       29.99R
MARSHFIELD     CLEAR     74  60  61 S6        29.97S
STEVENS POINT  CLEAR     74  58  58 SE3       29.98S
WAUPACA        CLEAR     76  62  62 SE5       29.98S
WAUTOMA        CLEAR     74  63  68 CALM      29.98S
WISC RAPIDS    CLEAR     76  62  62 S3        29.98R
CAMP DOUGLAS   CLEAR     76  61  59 S5        29.96S
$$

WIZ011>013-019>022-031-037>040-048>050-250200-
NORTHEAST WISCONSIN

CITY           SKY/WX    TMP DP  RH WIND       PRES   REMARKS
ANTIGO         CLEAR     69  63  80 SE7       30.00F
SHAWANO        CLEAR     74  65  73 SE6       29.97F
OCONTO         CLEAR     75  65  70 SE6       29.99S
STURGEON BAY   CLEAR     71  65  81 S8        30.02R
GREEN BAY      CLEAR     76  66  71 S8        29.99S
MANITOWOC      CLEAR     71  65  81 S8        30.02
APPLETON       PTCLDY    75  61  60 SE7       29.99R
CLINTONVILLE   CLEAR     73  63  68 SE5       29.98S
OSHKOSH        CLEAR     76  65  68 SE7       29.99S
$$

WIZ032>034-041-042-053>061-250200-
SOUTHWEST WISCONSIN

CITY           SKY/WX    TMP DP  RH WIND       PRES   REMARKS
LA CROSSE      CLEAR     83  64  52 S10       29.92R HX  84
SPARTA         CLEAR     78  62  57 S6        29.95S
VIROQUA        PTCLDY    75  64  67 SE6       29.98R
BOSCOBEL       CLEAR     80  63  55 CALM      29.95S HX  81
PRAIRIE DU CHI CLEAR     79  61  54 SE5       29.94R HX  80
PLATTEVILLE    CLEAR     77  63  61 SE7       29.99R
$$

WIZ056-057-062-063-064-067-068-250200-
SOUTH CENTRAL WISCONSIN

CITY           SKY/WX    TMP DP  RH WIND       PRES   REMARKS
REEDSBURG      CLEAR     74  61  63 CALM      29.97S
BARABOO/DELLS  CLEAR     73  58  59 S3        29.98R
LONE ROCK      CLEAR     71  63  75 CALM      29.97R
MINERAL POINT  CLEAR     77  61  57 SE3       30.00R
MADISON        CLEAR     76  61  59 S5        29.98S
MIDDLETON      CLEAR     73  61  66 CALM      30.00R
WATERTOWN      CLEAR     75  62  63 SE7       30.00R
MONROE         CLEAR     77  59  53 S7        30.00R
JANESVILLE     CLEAR     77  57  50 SE6       29.99S
$$

WIZ051-052-058>065-066-070>072-250200-
SOUTHEAST WISCONSIN

CITY           SKY/WX    TMP DP  RH WIND       PRES   REMARKS
MILWAUKEE      CLEAR     78  60  53 S5        30.02R
WAUKESHA       CLEAR     73  57  56 SE9       30.03S
MILWAUKEE/TIMM CLEAR     79  54  41 SE6       30.02S
RACINE         CLEAR     75  64  68 CALM      30.04R
BURLINGTON     CLEAR     75  63  64 SE5       30.02S
KENOSHA        CLEAR     74  62  66 SE3       30.02S
FOND DU LAC    CLEAR     75  62  64 SE7       30.00R
SHEBOYGAN      CLEAR     71  66  84 S3        30.02R
WEST BEND        N/A     73  59  60 CALM      30.03R
JUNEAU         CLEAR     74  62  65 SE6       30.02R
$$

LSZ147-162-250200-
LAKE SUPERIOR

STATION/POSITION TIME  TEMP    WIND        PRES    WAVE
                       AIR SEA DIR/SP/G            HT/PER
                 (UTC) (F)     (DEG/KT/KT) (MB)    (FT/S)
W MID LAKE BUOY  0050   65 57  160/  8/  8 1010.7F   0
DEVILS ISLAND    0100   77     170/  9/ 12 1010.3S
SAXON HARBOR     0040   71     170/  2/  4 1010.8F
$$

LMZ867-665-643>646-250200-
LAKE MICHIGAN

STATION/POSITION TIME  TEMP    WIND        PRES    WAVE
                       AIR SEA DIR/SP/G            HT/PER
                 (UTC) (F)     (DEG/KT/KT) (MB)    (FT/S)
S GREEN BAY BUOY 0030   76 71  170/ 10/ 12 1015.4R
N MID LAKE BUOY  0050   69 67  180/  8/ 10 1016.6S   1
NORTHPORT PIER   0040   73     170/  6/ 10 1015.6S
KEWAUNEE LAKESHO 0054   66     180/  2/  3 1015.5S
SHEBOYGAN LAKESH 0100   73     190/  8/  8 1015.9R
PORT WASHINGTON  0030   73     190/  3/  5 1016.9S
ATWATER BUOY     0009   69 60  190/  8/  8 1016.6R
MILWAUKEE LAKESH 0100   72     210/  2/  2   N/A
S MID LAKE BUOY  0050   76 72   80/  8/ 10 1016.6R   0
KENOSHA   LAKESH 0100   77     190/  4/  6 1015.9
$$

TC  - TEMPERATURE IN CELSIUS
VSB - VISIBILITY IN STATUTE MILES
WCI - WIND CHILL INDEX
HX  - HEAT INDEX




USA.gov is the U.S. government's official web portal to all federal, state and local government web resources and services.